QPF
0.16 0.15 0.12 0.09 0.08 0.07 0.06 0.04 0.03 0.02 0.03 0.02 0.01 0.00 0.00 0.00 0.00 0.00 0.00 0.01 0.01 0.01 0.01 0.01 0.02 0.03 0.04 0.04 0.05 0.05 0.06 0.06 0.06 0.06 0.07 0.09 0.11 0.13
0.19 0.17 0.14 0.10 0.07 0.06 0.05 0.04 0.03 0.02 0.02 0.01 0.01 0.00 0.00 0.00 0.00 0.00 0.01 0.00 0.00 0.00 0.01 0.00 0.01 0.01 0.01 0.01 0.02 0.02 0.02 0.02 0.03 0.04 0.04 0.04 0.06 0.08
0.21 0.19 0.15 0.10 0.07 0.06 0.04 0.03 0.03 0.01 0.01 0.01 0.00 0.00 0.00 0.00 0.00 0.01 0.01 0.01 0.01 0.01 0.01 0.01 0.01 0.01 0.01 0.01 0.01 0.02 0.01 0.01 0.01 0.01 0.02 0.02 0.03 0.05
0.20 0.17 0.11 0.07 0.04 0.03 0.02 0.01 0.01 0.00 0.00 0.00 0.00 0.00 0.00 0.00 0.00 0.00 0.00 0.01 0.01 0.01 0.01 0.01 0.01 0.01 0.01 0.01 0.01 0.01 0.01 0.01 0.01 0.01 0.01 0.01 0.02 0.04
0.19 0.15 0.10 0.05 0.03 0.02 0.01 0.00 0.00 0.00 0.00 0.00 0.00 0.00 0.00 0.00 0.00 0.00 0.00 0.01 0.01 0.01 0.01 0.01 0.01 0.01 0.01 0.01 0.01 0.01 0.01 0.01 0.01 0.01 0.02 0.02 0.03 0.05
0.11 0.07 0.04 0.02 0.01 0.01 0.00 0.00 0.00 0.00 0.00 0.00 0.00 0.00 0.00 0.00 0.00 0.00 0.00 0.00 0.01 0.01 0.00 0.00 0.01 0.01 0.01 0.01 0.01 0.01 0.00 0.00 0.01 0.01 0.02 0.03 0.05 0.07
0.03 0.01 0.01 0.00 0.00 0.00 0.00 0.00 0.00 0.00 0.00 0.00 0.00 0.00 0.00 0.00 0.00 0.00 0.00 0.00 0.00 0.00 0.00 0.00 0.01 0.01 0.01 0.01 0.01 0.01 0.01 0.01 0.01 0.02 0.02 0.05 0.10 0.16
0.01 0.01 0.00 0.00 0.00 0.00 0.00 0.00 0.00 0.00 0.00 0.00 0.00 0.00 0.00 0.00 0.00 0.00 0.00 0.00 0.00 0.00 0.00 0.00 0.00 0.01 0.01 0.01 0.01 0.01 0.01 0.01 0.02 0.03 0.04 0.08 0.15 0.23
0.01 0.01 0.00 0.00 0.00 0.00 0.00 0.00 0.00 0.00 0.00 0.00 0.00 0.00 0.00 0.00 0.00 0.00 0.00 0.00 0.00 0.00 0.00 0.00 0.00 0.01 0.01 0.01 0.01 0.01 0.01 0.02 0.03 0.05 0.08 0.12 0.19 0.28
0.00 0.00 0.00 0.00 0.00 0.00 0.00 0.00 0.00 0.00 0.00 0.00 0.00 0.00 0.00 0.00 0.00 0.00 0.00 0.00 0.00 0.00 0.00 0.00 0.00 0.01 0.01 0.01 0.02 0.02 0.02 0.04 0.06 0.09 0.12 0.17 0.26 0.41
0.00 0.00 0.00 0.00 0.00 0.00 0.00 0.00 0.00 0.00 0.00 0.00 0.00 0.00 0.00 0.00 0.00 0.00 0.00 0.00 0.00 0.00 0.00 0.00 0.00 0.01 0.01 0.02 0.02 0.02 0.02 0.04 0.08 0.12 0.17 0.23 0.32 0.44
0.00 0.00 0.00 0.00 0.00 0.00 0.00 0.00 0.00 0.00 0.00 0.00 0.00 0.00 0.00 0.00 0.00 0.00 0.00 0.00 0.00 0.00 0.00 0.00 0.00 0.01 0.01 0.02 0.02 0.02 0.02 0.04 0.06 0.10 0.15 0.20 0.28 0.35
0.00 0.00 0.00 0.00 0.00 0.00 0.00 0.00 0.00 0.00 0.00 0.00 0.00 0.00 0.00 0.00 0.00 0.00 0.00 0.00 0.00 0.00 0.00 0.00 0.00 0.00 0.01 0.03 0.03 0.03 0.03 0.04 0.05 0.07 0.11 0.16 0.23 0.30
0.00 0.00 0.00 0.00 0.00 0.00 0.00 0.00 0.00 0.00 0.00 0.00 0.00 0.00 0.00 0.00 0.00 0.00 0.00 0.00 0.00 0.00 0.00 0.00 0.00 0.00 0.01 0.03 0.05 0.05 0.05 0.05 0.06 0.07 0.09 0.13 0.18 0.25
0.00 0.00 0.00 0.00 0.00 0.00 0.00 0.00 0.00 0.00 0.00 0.00 0.00 0.00 0.00 0.00 0.00 0.00 0.00 0.00 0.00 0.00 0.00 0.00 0.00 0.00 0.01 0.02 0.04 0.06 0.07 0.07 0.08 0.09 0.10 0.11 0.14 0.18
0.00 0.00 0.00 0.00 0.00 0.00 0.00 0.00 0.00 0.00 0.00 0.00 0.00 0.00 0.00 0.00 0.00 0.00 0.00 0.00 0.00 0.00 0.00 0.00 0.00 0.00 0.01 0.01 0.02 0.04 0.05 0.07 0.08 0.09 0.12 0.14 0.16 0.18
0.00 0.00 0.00 0.00 0.00 0.00 0.00 0.00 0.00 0.00 0.00 0.00 0.00 0.00 0.00 0.00 0.00 0.00 0.00 0.00 0.00 0.00 0.00 0.00 0.00 0.00 0.00 0.00 0.01 0.01 0.02 0.04 0.05 0.06 0.09 0.12 0.14 0.16
0.00 0.00 0.00 0.00 0.00 0.00 0.00 0.00 0.00 0.00 0.00 0.00 0.00 0.00 0.00 0.00 0.00 0.00 0.00 0.00 0.00 0.00 0.00 0.00 0.00 0.00 0.00 0.00 0.00 0.00 0.01 0.01 0.02 0.02 0.04 0.06 0.08 0.09
0.00 0.00 0.00 0.00 0.00 0.00 0.00 0.00 0.00 0.00 0.00 0.00 0.00 0.00 0.00 0.00 0.00 0.00 0.00 0.00 0.00 0.00 0.00 0.00 0.00 0.00 0.00 0.00 0.00 0.00 0.00 0.00 0.01 0.01 0.01 0.02 0.04 0.05
0.00 0.00 0.00 0.00 0.00 0.00 0.00 0.00 0.00 0.00 0.00 0.00 0.00 0.00 0.00 0.00 0.00 0.00 0.00 0.00 0.00 0.00 0.00 0.00 0.00 0.00 0.00 0.00 0.00 0.00 0.00 0.00 0.00 0.00 0.00 0.00 0.01 0.02
0.00 0.00 0.00 0.00 0.00 0.00 0.00 0.00 0.00 0.00 0.00 0.00 0.00 0.00 0.00 0.00 0.00 0.00 0.00 0.00 0.00 0.00 0.00 0.00 0.00 0.00 0.00 0.00 0.00 0.00 0.00 0.00 0.00 0.00 0.00 0.01 0.01 0.02
0.00 0.00 0.00 0.00 0.00 0.00 0.00 0.00 0.00 0.00 0.00 0.00 0.00 0.00 0.00 0.00 0.00 0.00 0.00 0.00 0.00 0.00 0.00 0.00 0.00 0.00 0.00 0.00 0.00 0.00 0.00 0.00 0.00 0.00 0.00 0.00 0.00 0.01
0.00 0.00 0.00 0.00 0.00 0.00 0.00 0.00 0.00 0.00 0.00 0.00 0.00 0.00 0.00 0.00 0.00 0.00 0.00 0.00 0.00 0.00 0.00 0.00 0.00 0.00 0.00 0.00 0.00 0.00 0.00 0.00 0.00 0.00 0.00 0.00 0.00 0.00
MSLP
1008.43 1008.71 1009.02 1009.37 1009.74 1010.11 1010.46 1010.76 1010.99 1011.13 1011.17 1011.10 1010.93 1010.68 1010.36 1010.01 1009.65 1009.33 1009.07 1008.88 1008.80 1008.80 1008.88 1009.00 1009.16 1009.30 1009.41 1009.47 1009.47 1009.43 1009.35 1009.27 1009.19 1009.15 1009.16 1009.22 1009.35 1009.53
1008.12 1008.38 1008.67 1009.00 1009.35 1009.73 1010.11 1010.46 1010.77 1011.01 1011.16 1011.20 1011.14 1010.98 1010.73 1010.42 1010.08 1009.76 1009.47 1009.25 1009.11 1009.06 1009.09 1009.17 1009.27 1009.38 1009.46 1009.49 1009.48 1009.41 1009.31 1009.19 1009.07 1008.98 1008.91 1008.89 1008.92 1009.01
1008.07 1008.31 1008.58 1008.86 1009.18 1009.53 1009.91 1010.28 1010.64 1010.96 1011.20 1011.35 1011.40 1011.33 1011.16 1010.91 1010.61 1010.28 1009.97 1009.71 1009.52 1009.40 1009.35 1009.37 1009.42 1009.48 1009.52 1009.53 1009.49 1009.40 1009.27 1009.12 1008.95 1008.78 1008.63 1008.51 1008.43 1008.39
1008.26 1008.50 1008.73 1008.98 1009.25 1009.57 1009.91 1010.29 1010.67 1011.04 1011.35 1011.60 1011.74 1011.76 1011.67 1011.48 1011.21 1010.89 1010.56 1010.25 1009.98 1009.79 1009.66 1009.60 1009.58 1009.57 1009.57 1009.54 1009.47 1009.35 1009.18 1008.98 1008.74 1008.49 1008.24 1008.00 1007.78 1007.61
1008.66 1008.90 1009.11 1009.32 1009.55 1009.82 1010.13 1010.48 1010.87 1011.26 1011.62 1011.93 1012.14 1012.24 1012.22 1012.08 1011.84 1011.52 1011.17 1010.81 1010.48 1010.20 1009.98 1009.83 1009.73 1009.66 1009.59 1009.51 1009.39 1009.23 1009.01 1008.75 1008.43 1008.08 1007.71 1007.33 1006.98 1006.66
1009.19 1009.43 1009.63 1009.81 1010.00 1010.23 1010.50 1010.82 1011.18 1011.57 1011.95 1012.29 1012.56 1012.71 1012.74 1012.64 1012.42 1012.11 1011.73 1011.33 1010.94 1010.59 1010.29 1010.05 1009.87 1009.72 1009.59 1009.45 1009.27 1009.05 1008.77 1008.43 1008.02 1007.56 1007.06 1006.55 1006.05 1005.60
1009.75 1009.99 1010.19 1010.36 1010.52 1010.71 1010.94 1011.22 1011.55 1011.91 1012.28 1012.63 1012.91 1013.09 1013.15 1013.08 1012.88 1012.57 1012.19 1011.76 1011.33 1010.92 1010.55 1010.24 1009.99 1009.77 1009.57 1009.37 1009.13 1008.84 1008.49 1008.06 1007.56 1006.99 1006.37 1005.74 1005.11 1004.54
1010.26 1010.51 1010.71 1010.88 1011.03 1011.18 1011.37 1011.61 1011.89 1012.22 1012.55 1012.88 1013.15 1013.33 1013.40 1013.35 1013.16 1012.87 1012.49 1012.06 1011.60 1011.16 1010.76 1010.40 1010.09 1009.82 1009.56 1009.30 1009.00 1008.65 1008.23 1007.72 1007.13 1006.47 1005.75 1005.01 1004.29 1003.63
1010.68 1010.93 1011.14 1011.31 1011.46 1011.60 1011.76 1011.95 1012.18 1012.45 1012.73 1013.01 1013.25 1013.42 1013.48 1013.44 1013.27 1013.00 1012.65 1012.23 1011.78 1011.34 1010.92 1010.54 1010.20 1009.89 1009.59 1009.28 1008.93 1008.53 1008.04 1007.47 1006.81 1006.08 1005.29 1004.49 1003.71 1003.01
1010.98 1011.25 1011.47 1011.65 1011.80 1011.93 1012.07 1012.22 1012.41 1012.61 1012.84 1013.06 1013.25 1013.39 1013.44 1013.40 1013.25 1013.01 1012.69 1012.31 1011.90 1011.48 1011.07 1010.69 1010.34 1010.01 1009.68 1009.34 1008.95 1008.50 1007.97 1007.36 1006.66 1005.90 1005.08 1004.26 1003.48 1002.77
1011.19 1011.47 1011.72 1011.92 1012.08 1012.22 1012.34 1012.47 1012.61 1012.76 1012.92 1013.09 1013.23 1013.33 1013.36 1013.32 1013.19 1012.99 1012.71 1012.37 1012.00 1011.62 1011.25 1010.88 1010.54 1010.19 1009.85 1009.48 1009.06 1008.58 1008.03 1007.40 1006.69 1005.94 1005.14 1004.35 1003.61 1002.95
1011.35 1011.65 1011.92 1012.15 1012.34 1012.49 1012.62 1012.72 1012.83 1012.94 1013.05 1013.16 1013.26 1013.32 1013.33 1013.29 1013.18 1013.01 1012.77 1012.48 1012.16 1011.82 1011.48 1011.13 1010.79 1010.44 1010.08 1009.69 1009.25 1008.75 1008.19 1007.57 1006.89 1006.18 1005.44 1004.73 1004.07 1003.50
1011.49 1011.82 1012.12 1012.38 1012.60 1012.78 1012.91 1013.02 1013.11 1013.19 1013.27 1013.34 1013.40 1013.43 1013.43 1013.39 1013.29 1013.14 1012.94 1012.69 1012.41 1012.11 1011.78 1011.45 1011.11 1010.75 1010.37 1009.96 1009.50 1009.00 1008.45 1007.85 1007.22 1006.57 1005.93 1005.31 1004.77 1004.31
1011.63 1011.98 1012.31 1012.61 1012.86 1013.07 1013.23 1013.35 1013.44 1013.51 1013.57 1013.62 1013.66 1013.68 1013.67 1013.63 1013.54 1013.41 1013.24 1013.02 1012.76 1012.47 1012.16 1011.83 1011.47 1011.10 1010.69 1010.26 1009.79 1009.29 1008.75 1008.19 1007.62 1007.06 1006.52 1006.03 1005.61 1005.28
1011.74 1012.12 1012.48 1012.81 1013.09 1013.33 1013.52 1013.66 1013.78 1013.86 1013.93 1013.98 1014.02 1014.03 1014.02 1013.99 1013.91 1013.79 1013.63 1013.43 1013.18 1012.90 1012.59 1012.24 1011.87 1011.47 1011.05 1010.59 1010.11 1009.61 1009.10 1008.58 1008.08 1007.60 1007.17 1006.79 1006.50 1006.29
1011.80 1012.19 1012.57 1012.92 1013.23 1013.50 1013.73 1013.91 1014.05 1014.17 1014.26 1014.33 1014.38 1014.41 1014.42 1014.39 1014.33 1014.22 1014.07 1013.87 1013.63 1013.35 1013.03 1012.68 1012.29 1011.87 1011.42 1010.96 1010.47 1009.98 1009.49 1009.01 1008.57 1008.17 1007.83 1007.56 1007.37 1007.25
1011.75 1012.14 1012.53 1012.89 1013.23 1013.53 1013.78 1014.00 1014.19 1014.35 1014.48 1014.59 1014.67 1014.73 1014.76 1014.75 1014.71 1014.62 1014.48 1014.30 1014.07 1013.79 1013.47 1013.11 1012.71 1012.29 1011.84 1011.36 1010.88 1010.41 1009.94 1009.51 1009.12 1008.79 1008.52 1008.32 1008.20 1008.14
1011.56 1011.95 1012.33 1012.70 1013.04 1013.36 1013.64 1013.90 1014.13 1014.34 1014.52 1014.67 1014.80 1014.90 1014.96 1014.99 1014.98 1014.92 1014.81 1014.65 1014.44 1014.18 1013.87 1013.53 1013.15 1012.73 1012.29 1011.83 1011.37 1010.92 1010.49 1010.09 1009.74 1009.45 1009.23 1009.07 1008.98 1008.95
1011.22 1011.60 1011.97 1012.33 1012.67 1013.00 1013.31 1013.60 1013.87 1014.12 1014.34 1014.55 1014.73 1014.88 1014.99 1015.06 1015.09 1015.07 1015.00 1014.89 1014.72 1014.50 1014.24 1013.93 1013.58 1013.20 1012.80 1012.37 1011.95 1011.52 1011.12 1010.76 1010.44 1010.17 1009.97 1009.83 1009.74 1009.69
1010.77 1011.12 1011.47 1011.81 1012.15 1012.48 1012.80 1013.11 1013.41 1013.70 1013.97 1014.23 1014.46 1014.66 1014.82 1014.95 1015.03 1015.07 1015.06 1015.01 1014.90 1014.75 1014.55 1014.30 1014.02 1013.69 1013.34 1012.97 1012.58 1012.20 1011.83 1011.49 1011.19 1010.94 1010.73 1010.58 1010.47 1010.39
1010.22 1010.56 1010.88 1011.21 1011.53 1011.85 1012.17 1012.50 1012.82 1013.14 1013.45 1013.74 1014.01 1014.26 1014.48 1014.67 1014.82 1014.93 1014.99 1015.01 1014.99 1014.92 1014.80 1014.63 1014.42 1014.17 1013.88 1013.57 1013.23 1012.89 1012.55 1012.23 1011.94 1011.69 1011.48 1011.31 1011.16 1011.04
1009.63 1009.94 1010.25 1010.55 1010.85 1011.16 1011.48 1011.80 1012.13 1012.47 1012.80 1013.12 1013.44 1013.73 1014.00 1014.25 1014.46 1014.65 1014.80 1014.91 1014.97 1014.99 1014.97 1014.89 1014.77 1014.59 1014.37 1014.11 1013.83 1013.52 1013.22 1012.92 1012.64 1012.39 1012.17 1011.98 1011.81 1011.65
1009.01 1009.31 1009.59 1009.87 1010.15 1010.44 1010.75 1011.07 1011.39 1011.73 1012.07 1012.42 1012.76 1013.09 1013.41 1013.71 1013.99 1014.25 1014.49 1014.69 1014.85 1014.97 1015.04 1015.05 1015.01 1014.91 1014.75 1014.55 1014.31 1014.04 1013.76 1013.48 1013.22 1012.97 1012.75 1012.55 1012.37 1012.19
Thickness
5681 5679 5679 5679 5680 5679 5678 5676 5670 5665 5666 5671 5675 5680 5684 5688 5690 5692 5694 5695 5696 5697 5697 5697 5697 5697 5696 5696 5695 5695 5695 5695 5695 5696 5697 5699 5700 5701
5672 5671 5669 5670 5671 5672 5672 5671 5669 5664 5659 5662 5666 5670 5674 5678 5681 5683 5684 5686 5687 5687 5687 5687 5687 5687 5687 5686 5686 5685 5686 5686 5687 5688 5689 5691 5694 5696
5663 5662 5660 5661 5662 5663 5664 5663 5662 5660 5655 5654 5657 5661 5664 5667 5670 5672 5674 5675 5676 5676 5676 5676 5676 5676 5676 5675 5675 5676 5676 5677 5679 5680 5682 5685 5688 5691
5651 5651 5651 5653 5653 5654 5654 5654 5654 5654 5650 5646 5647 5650 5654 5657 5659 5662 5663 5664 5664 5664 5665 5665 5665 5665 5664 5664 5665 5665 5666 5668 5670 5672 5676 5680 5682 5686
5641 5641 5641 5642 5642 5643 5644 5645 5645 5644 5642 5639 5638 5640 5643 5647 5649 5651 5652 5652 5653 5653 5653 5654 5654 5654 5653 5653 5654 5654 5655 5657 5660 5664 5668 5672 5677 5681
5630 5631 5632 5632 5633 5634 5635 5635 5635 5633 5631 5631 5629 5630 5632 5635 5636 5636 5637 5639 5639 5641 5641 5642 5642 5642 5642 5642 5642 5642 5644 5647 5650 5654 5659 5665 5670 5675
5620 5621 5622 5624 5625 5627 5627 5626 5626 5624 5622 5621 5619 5619 5619 5621 5621 5623 5624 5625 5627 5628 5628 5629 5629 5629 5629 5629 5629 5630 5633 5636 5639 5644 5649 5656 5663 5670
5610 5610 5612 5614 5616 5618 5619 5619 5619 5617 5614 5612 5610 5609 5609 5609 5611 5613 5613 5613 5612 5615 5614 5615 5617 5616 5617 5617 5618 5619 5621 5624 5628 5633 5639 5646 5655 5663
5603 5604 5606 5606 5608 5609 5611 5612 5611 5611 5611 5607 5604 5603 5603 5603 5604 5604 5603 5601 5601 5601 5602 5601 5603 5603 5605 5606 5607 5608 5610 5613 5617 5621 5627 5635 5644 5653
5597 5597 5597 5599 5602 5603 5604 5603 5602 5603 5603 5603 5601 5600 5599 5598 5597 5596 5594 5594 5593 5592 5590 5587 5588 5590 5593 5594 5595 5597 5599 5602 5605 5610 5616 5622 5631 5639
5591 5592 5593 5594 5597 5599 5597 5595 5595 5596 5598 5598 5598 5596 5595 5594 5592 5590 5586 5582 5578 5579 5579 5576 5576 5577 5580 5582 5584 5586 5588 5591 5595 5598 5603 5609 5616 5624
5584 5586 5590 5591 5592 5593 5591 5590 5589 5588 5590 5591 5590 5589 5587 5586 5585 5581 5577 5572 5568 5566 5568 5566 5565 5565 5566 5570 5573 5575 5578 5581 5584 5588 5591 5595 5602 5609
5583 5583 5584 5587 5588 5587 5587 5586 5585 5585 5584 5583 5580 5578 5577 5577 5576 5574 5571 5567 5561 5557 5558 5557 5555 5553 5552 5555 5560 5564 5567 5569 5573 5577 5581 5584 5588 5594
5582 5582 5582 5583 5583 5583 5583 5583 5583 5581 5578 5574 5571 5569 5567 5567 5566 5565 5563 5560 5557 5553 5552 5550 5547 5545 5543 5544 5547 5552 5556 5559 5563 5567 5571 5574 5577 5581
5583 5582 5581 5580 5580 5579 5580 5579 5578 5575 5571 5567 5564 5562 5561 5560 5559 5557 5556 5553 5551 5549 5546 5544 5541 5539 5537 5536 5536 5539 5544 5548 5552 5556 5561 5564 5568 5571
5580 5579 5578 5577 5575 5576 5575 5573 5571 5568 5565 5562 5559 5557 5556 5555 5551 5549 5545 5542 5539 5537 5539 5538 5535 5533 5530 5529 5528 5529 5532 5535 5541 5546 5550 5554 5558 5561
5576 5572 5571 5570 5570 5569 5568 5567 5565 5563 5560 5557 5555 5553 5551 5548 5545 5542 5538 5534 5529 5526 5525 5527 5528 5526 5524 5521 5520 5520 5522 5525 5529 5534 5539 5543 5546 5549
5574 5570 5568 5567 5567 5565 5563 5562 5560 5557 5556 5554 5551 5549 5545 5542 5539 5536 5532 5527 5523 5519 5517 5515 5515 5515 5515 5515 5513 5512 5513 5515 5519 5524 5528 5531 5534 5536
5572 5569 5567 5566 5565 5563 5561 5559 5557 5555 5553 5551 5548 5545 5542 5538 5534 5531 5527 5522 5518 5514 5511 5508 5505 5502 5499 5499 5503 5506 5504 5506 5509 5512 5515 5518 5521 5524
5571 5569 5567 5566 5565 5563 5560 5558 5555 5552 5550 5547 5545 5542 5539 5535 5531 5526 5522 5518 5513 5509 5506 5503 5499 5495 5492 5491 5491 5495 5498 5497 5499 5501 5503 5506 5509 5512
5569 5569 5568 5566 5565 5563 5561 5558 5555 5552 5549 5545 5542 5539 5536 5532 5528 5523 5519 5516 5510 5505 5500 5496 5494 5494 5491 5488 5485 5485 5488 5490 5491 5490 5492 5494 5496 5499
5570 5569 5567 5565 5564 5562 5560 5557 5554 5550 5547 5544 5541 5537 5533 5530 5526 5521 5516 5511 5505 5501 5497 5493 5491 5488 5484 5478 5475 5474 5476 5480 5483 5484 5484 5484 5483 5485
5571 5569 5567 5564 5563 5561 5558 5555 5553 5550 5547 5544 5540 5536 5532 5527 5523 5518 5513 5508 5503 5497 5492 5488 5484 5480 5475 5472 5468 5466 5468 5468 5468 5470 5472 5475 5475 5477